Flag for Brunei Weather past 2 weeks in Bandar Seri Begawan, Brunei

Now
88 °F

Partly sunny.


Feels Like: 100 °F
Forecast: 78 / 90 °F
Wind: 12 mph from Northwest

Location: Brunei Airport

Current Time: Mar 31, 2015 at 2:00:50 PM

Latest Report: Mar 31, 2015 at 1:30 PM


Visibility: 4 mi

Pressure: 29.83 "Hg

Humidity: 70%

Dew point: 77 °F

Location of Bandar Seri BegawanLocation

Historic Weather in Bandar Seri Begawan — Graph

°F

Bandar Seri Begawan temperature yesterday

Maximum temperature yesterday: 90 °F (at 12:00 PM)
Minimum temperature yesterday: 77 °F (at 6:30 AM)
Average temperature yesterday: 83 °F

Past Weeks' High & Low Weather Summary

 TemperatureHumidityPressure
High90 °F (Mar 20, 11:30 AM)100% (Mar 17, 2:30 AM)29.95 "Hg (Mar 17, 2:30 AM)
Low73 °F (Mar 19, 4:00 AM)52% (Mar 20, 11:30 AM)29.77 "Hg (Mar 18, 4:30 PM)
Average82 °F82%29.87 "Hg
* Reported Mar 16 1:00 PM — Mar 31 1:00 PM, Bandar Seri Begawan, Weather by CustomWeather, © 2015

Note: Actual official high and low records may vary slightly from our data, if they occured in-between our weather recording intervals... More about our weather records

Advertising

Bandar Seri Begawan weather history for previous 24 hours

 ConditionsComfort  
Time TempWeatherWind HumidityBarometerVisibility
1:00 PM
Tue, Mar 31
88 °FPartly sunny.12 mph70%29.83 "Hg4 mi
12:30 PM90 °FPartly sunny.12 mph67%29.86 "Hg4 mi
12:00 PM88 °FPartly sunny.10 mph70%29.86 "Hg6 mi
11:30 AM88 °FPartly sunny.10 mph70%29.86 "Hg6 mi
10:30 AM90 °FPartly sunny.3 mph63%29.89 "Hg6 mi
10:00 AM90 °FPartly sunny.5 mph63%29.89 "Hg6 mi
9:30 AM88 °FPartly sunny.5 mph66%29.89 "Hg6 mi
9:00 AM84 °FPartly sunny.3 mph74%29.89 "Hg6 mi
8:30 AM82 °FPartly sunny.6 mph84%29.89 "Hg6 mi
8:00 AM81 °FPartly sunny.6 mph89%29.86 "Hg6 mi
7:30 AM79 °FBroken clouds.5 mph89%29.86 "Hg5 mi
7:00 AM77 °FBroken clouds.5 mph100%29.86 "Hg5 mi
6:30 AM77 °FBroken clouds.5 mph94%29.83 "Hg4 mi
6:00 AM77 °FPassing clouds.3 mph94%29.83 "Hg4 mi
5:30 AM79 °FPassing clouds.3 mph89%29.83 "Hg4 mi
5:00 AM79 °FPassing clouds.3 mph89%29.80 "Hg4 mi
4:30 AM79 °FPassing clouds.5 mph94%29.80 "Hg4 mi
4:00 AM79 °FPartly cloudy.5 mph94%29.80 "Hg4 mi
3:30 AM79 °FPartly cloudy.6 mph94%29.80 "Hg4 mi
3:00 AM79 °FPartly cloudy.5 mph94%29.83 "Hg4 mi
2:30 AM79 °FPassing clouds.3 mph89%29.83 "Hg4 mi
2:00 AM79 °FPassing clouds.2 mph94%29.83 "Hg4 mi
1:30 AM79 °FPassing clouds.3 mph94%29.83 "Hg4 mi
1:00 AM79 °FPassing clouds.2 mph94%29.86 "Hg4 mi
12:30 AM81 °FPassing clouds.3 mph89%29.86 "Hg5 mi
12:00 AM81 °FPassing clouds.6 mph89%29.86 "Hg5 mi
11:30 PM
Mon, Mar 30
81 °FPassing clouds.3 mph89%29.86 "Hg6 mi
11:00 PM81 °FPassing clouds.3 mph89%29.89 "Hg6 mi
10:30 PM82 °FPassing clouds.2 mph89%29.89 "Hg6 mi
10:00 PM81 °FPassing clouds.2 mph89%29.86 "Hg6 mi
9:30 PM82 °FPassing clouds.2 mph84%29.86 "Hg6 mi
9:00 PM82 °FPassing clouds.3 mph84%29.86 "Hg6 mi
8:30 PM82 °FPassing clouds.3 mph84%29.86 "Hg6 mi
8:00 PM82 °FPassing clouds.3 mph84%29.83 "Hg6 mi
7:30 PM82 °FPassing clouds.6 mph84%29.83 "Hg6 mi
7:00 PM82 °FPassing clouds.3 mph84%29.83 "Hg6 mi
6:30 PM82 °FPassing clouds.5 mph84%29.80 "Hg6 mi
6:00 PM82 °FPartly sunny.5 mph84%29.80 "Hg6 mi
5:30 PM82 °FPartly sunny.7 mph84%29.80 "Hg6 mi
5:00 PM82 °FPartly sunny.8 mph84%29.80 "Hg6 mi
4:30 PM82 °FPartly sunny.9 mph84%29.80 "Hg6 mi
4:00 PM84 °FPartly sunny.14 mph79%29.77 "Hg6 mi
3:30 PM88 °FPartly sunny.12 mph75%29.77 "Hg6 mi
3:00 PM86 °FPartly sunny.14 mph75%29.77 "Hg6 mi
2:30 PM90 °FPartly sunny.13 mph71%29.77 "Hg6 mi
2:00 PM90 °FPartly sunny.12 mph71%29.80 "Hg6 mi
Weather by CustomWeather, © 2015

See weather overviewHow to use our weather pages